Location: Easthampton
(42.2676°N, 72.6690°W)
Time: 09:19:06
(UTC+00:00)

Gurwin Techsat 1B - Pass Details

Date: 04 April 2023
Orbit: 811 x 813 km, 98.9° (Epoch: 02 June)

Event Time Altitude Azimuth Distance (km) Brightness Sun altitude
Rises 09:17:08 0° 358° (N) 3,348 12.1 -13.6°
Reaches altitude 10° 09:20:14 10° 340° (NNW) 2,411 11.1 -13.1°
Maximum altitude 09:23:36 17° 300° (WNW) 1,938 10.2 -12.5°
Enters shadow 09:25:41 14° 273° (W) 2,125 10.2 -12.1°
